[[{"header":{"parameterUnit":"m.s-1","parameterCategory":1,"la1":30.2992,"la2":30.254,"lo1":-89.0895,"lo2":-89.0443,"dy":0.0025,"dx":0.0025,"nx":19,"ny":19,"refTime":"2026-05-09T09:00:00:Z","depth":0,"parameterNumber":2,"parameterNumberName":"U-component_of_WINDS"},"data":[0,0,0,-4.7908,-4.791,-4.7994,-4.7994,-4.8136,-4.8137,0,0,0,0,0,0,0,0,0,0,0,-4.7905,-4.7907,-4.7908,-4.791,-4.7994,-4.7994,-4.8135,-4.8137,0,0,0,0,0,0,0,0,0,0,0,-4.7904,-4.7906,-4.7908,-4.7911,-4.7994,-4.7994,-4.8135,-4.8059,0,0,0,0,0,0,0,0,0,0,-4.7972,-4.7991,-4.7906,-4.7908,-4.7911,-4.7994,-4.7994,-4.8055,-4.8064,-4.8113,0,-4.8163,0,-4.8153,-4.8149,-4.815,0,0,0,-4.7894,-4.7984,-4.7987,-4.7909,-4.7912,-4.7994,-4.7951,-4.806,-4.807,-4.8126,-4.8165,-4.8169,-4.8155,-4.815,-4.8151,-4.8493,-4.8495,0,0,-4.7889,-4.7931,-4.798,-4.7994,-4.7984,-4.7949,-4.7954,-4.8065,-4.8111,-4.8165,-4.8172,-4.8158,-4.8152,-4.8153,-4.849,-4.8493,0,0,0,-4.7887,-4.7929,-4.7928,-4.799,-4.8002,-4.7952,-4.7958,-4.8106,-4.8102,-4.8173,-4.8159,-4.8153,-4.8155,-4.8488,-4.8491,-4.865,0,0,0,-4.7883,-4.7927,-4.7927,-4.7954,-4.8001,-4.8055,-4.7996,-4.8095,-4.8106,-4.8159,-4.8153,-4.8156,-4.8485,-4.849,-4.864,-4.8717,0,0,0,-4.7892,-4.7928,-4.7948,-4.7956,-4.7993,-4.8052,-4.8054,-4.8096,-4.8098,-4.815,-4.8157,-4.8483,-4.8489,-4.8631,-4.8702,-4.8819,0,0,0,-4.7913,-4.8086,-4.7951,-4.814,-4.7993,-4.815,-4.8053,-4.8168,-4.8231,-4.8153,-4.8485,-4.8491,-4.8628,-4.8693,-4.881,-4.8925,-4.8977,0,0,-4.8155,-4.8117,-4.8225,-4.8106,-4.8299,-4.8134,-4.835,-4.8367,-4.8333,-4.8441,-4.8449,-4.8643,-4.8701,-4.8817,-4.9256,-4.9298,0,0,0,-4.8316,-4.8394,-4.8435,-4.8499,-4.8518,-4.854,-4.852,-4.8527,-4.8618,-4.8397,-4.8716,-4.8749,-4.8816,-4.8869,-4.8904,-4.8958,-4.8518,-4.8517,-4.8516,-4.8717,-4.8666,-4.8841,-4.8802,-4.8864,-4.8844,-4.889,-4.8895,-4.8824,-4.8901,-4.8932,-4.9205,-4.9268,-4.9294,-4.9352,-4.8989,-4.899,-4.8991,-4.8991,-4.9067,-4.9169,-4.9073,-4.9208,-4.9154,-4.9267,-4.9256,-4.9202,-4.9299,-4.9176,-4.9232,-4.9101,-4.9342,-4.9389,-4.9002,-4.9,-4.8999,-4.8998,-4.8997,-4.9322,-4.9362,-4.937,-4.9458,-4.9531,-4.9485,-4.9584,-4.953,-4.948,-4.9536,-4.9563,-4.956,-4.955,-4.9553,-4.9554,-4.9555,-4.9556,-4.9557,-4.9557,-4.9584,-4.9587,-4.9677,-4.9715,-4.975,-4.9789,-4.9773,-4.9805,-4.9828,-4.9781,-4.9781,-4.9703,-4.9376,-4.9294,-4.9572,-4.9569,-4.9567,-4.9566,-4.9565,-4.9955,-4.9863,-5.0002,-5.0038,-5.0078,-5.0156,-5.0088,-5.016,-5.0179,-5.023,-5.0141,-4.9908,-4.9865,-4.9836,-4.9768,-5.0151,-5.0151,-5.0151,-5.0152,-5.0169,-5.0144,-5.0275,-5.0335,-5.0388,-5.0342,-5.0502,-5.0493,-5.0468,-5.0477,-5.0415,-5.032,-5.0294,-5.0266,-5.0228,-5.0163,-5.0639,-5.0639,-5.064,-5.0394,-5.0371,-5.0517,-5.0493,-5.0522,-5.0548,-5.0697,-5.077,-5.0724,-5.0658,-5.0483,-5.0463,-5.031,-5.0263,-5.0191,-5.0133,-5.0014,0,0]},{"header":{"parameterUnit":"m.s-1","parameterCategory":1,"la1":30.2992,"la2":30.254,"lo1":-89.0895,"lo2":-89.0443,"dy":0.0025,"dx":0.0025,"nx":19,"ny":19,"refTime":"2026-05-09T09:00:00:Z","depth":0,"parameterNumber":3,"parameterNumberName":"V-component_of_WINDS"},"data":[0,0,0,2.1024,2.1023,2.0992,2.0992,2.0942,2.0941,0,0,0,0,0,0,0,0,0,0,0,2.1028,2.1027,2.1024,2.1023,2.0992,2.0992,2.0942,2.0941,0,0,0,0,0,0,0,0,0,0,0,2.1028,2.1028,2.1027,2.1023,2.0992,2.0992,2.0942,2.0969,0,0,0,0,0,0,0,0,0,0,2.1,2.0999,2.1028,2.1027,2.1023,2.0992,2.0992,2.097,2.0967,2.0951,0,2.0938,0,2.0939,2.0937,2.0937,0,0,0,2.1026,2.1002,2.0999,2.1027,2.1023,2.0992,2.1007,2.0968,2.0965,2.0947,2.0937,2.0935,2.0938,2.0937,2.0936,2.0842,2.0841,0,0,2.1028,2.1019,2.1001,2.0996,2.1002,2.1008,2.1006,2.0966,2.0954,2.0937,2.0934,2.0937,2.0936,2.0936,2.0842,2.0841,0,0,0,2.1031,2.102,2.1018,2.0998,2.0993,2.1007,2.1005,2.0956,2.0956,2.0934,2.0936,2.0936,2.0935,2.0843,2.0842,2.0805,0,0,0,2.1032,2.1022,2.1019,2.1012,2.0994,2.0974,2.0995,2.0959,2.0955,2.0937,2.0936,2.0935,2.0844,2.0842,2.0807,2.0788,0,0,0,2.1032,2.1022,2.1016,2.1012,2.0999,2.0975,2.0973,2.0958,2.0956,2.0937,2.0935,2.0844,2.0843,2.081,2.0792,2.0762,0,0,0,2.1028,2.0981,2.1015,2.0964,2.0999,2.0954,2.0974,2.094,2.0919,2.0936,2.0843,2.0842,2.081,2.0794,2.0764,2.0735,2.0722,0,0,2.0963,2.0973,2.0943,2.0973,2.092,2.0959,2.0899,2.0888,2.0893,2.0858,2.0856,2.0807,2.0792,2.0762,2.0653,2.0642,0,0,0,2.092,2.0899,2.0887,2.0868,2.086,2.0852,2.0851,2.0847,2.0819,2.0874,2.0788,2.0779,2.0762,2.0749,2.074,2.0726,2.0835,2.0836,2.0836,2.0813,2.0826,2.0779,2.0788,2.0769,2.0771,2.0757,2.0752,2.0767,2.0747,2.0736,2.0668,2.0652,2.0645,2.0631,2.0722,2.0721,2.0721,2.0721,2.072,2.0693,2.0718,2.0681,2.0694,2.0662,2.0662,2.0675,2.0647,2.0676,2.0662,2.0693,2.0634,2.0621,2.0718,2.0719,2.0719,2.072,2.072,2.0652,2.0641,2.0639,2.0616,2.0596,2.0607,2.058,2.0592,2.0603,2.0588,2.0579,2.058,2.0582,2.0583,2.0583,2.0583,2.0583,2.0583,2.0582,2.0582,2.0581,2.0558,2.0548,2.054,2.0529,2.0532,2.0523,2.0516,2.0526,2.0526,2.0544,2.0626,2.0647,2.0579,2.0579,2.058,2.058,2.058,2.0482,2.0507,2.0472,2.0463,2.0454,2.0434,2.0451,2.0432,2.0426,2.0413,2.0435,2.0494,2.0503,2.051,2.0527,2.0432,2.0432,2.0432,2.0432,2.0424,2.0432,2.04,2.0385,2.0373,2.0386,2.0345,2.0347,2.0353,2.035,2.0366,2.0389,2.0396,2.0401,2.0411,2.0427,2.0309,2.0309,2.0309,2.0364,2.0371,2.0335,2.0343,2.0338,2.0332,2.0294,2.0276,2.0287,2.0304,2.0348,2.0353,2.0392,2.0404,2.0419,2.0433,2.0463,0,0]}]]